[[{"header":{"parameterUnit":"m.s-1","parameterCategory":1,"la1":30.2991,"la2":30.254,"lo1":-89.0895,"lo2":-89.0444,"dy":0.0017,"dx":0.0017,"nx":28,"ny":28,"refTime":"2025-09-17T03:00:00:Z","depth":0,"parameterNumber":2,"parameterNumberName":"U-component_of_WINDS"},"data":[0,0,0,0,0,0,0,0,0,0,0,0,0,0,0,0,0,0,0,0,0,0,0,0,0,0,0,0,0,0,0,0,0,0,0,0,0,0,0,0,0,0,0,0,0,0,0,0,0,0,0,0,0,0,0,0,0,0,-0.3075,-0.3074,0,-0.3017,-0.3016,-0.3015,-0.2975,-0.2975,-0.2974,-0.2974,-0.2914,-0.2912,-0.2911,0,0,0,0,0,0,0,0,0,0,0,0,0,-0.315,-0.3149,-0.3075,-0.3074,-0.3073,-0.3017,-0.3016,-0.3015,-0.2975,-0.2975,-0.2974,-0.2974,-0.2914,-0.2913,-0.2911,0,0,0,0,0,0,0,0,0,0,0,0,0,-0.3107,-0.3149,-0.3075,-0.3046,-0.3043,-0.3017,-0.3016,-0.3015,-0.2975,-0.2975,-0.2974,-0.2974,-0.2915,-0.2913,-0.2911,-0.2908,0,0,-0.2905,-0.2904,0,0,0,0,0,0,0,0,-0.311,-0.3105,-0.3051,-0.3048,-0.3045,-0.3003,-0.302,-0.2979,-0.2975,-0.3001,-0.2974,-0.2973,-0.2944,-0.2939,-0.2929,-0.2905,-0.2902,-0.2905,-0.2903,-0.2903,-0.2902,0,0,0,0,0,0,0,-0.3113,-0.3107,-0.3052,-0.3051,-0.3047,-0.3036,-0.303,-0.3012,-0.2975,-0.2999,-0.2996,-0.2989,-0.2942,-0.2931,-0.2928,-0.2902,-0.2905,-0.2903,-0.2902,-0.2901,-0.2873,-0.2873,0,0,0,0,0,0,-0.312,-0.311,-0.3054,-0.305,-0.3077,-0.3035,-0.3028,-0.3017,-0.2976,-0.2969,-0.299,-0.2988,-0.2935,-0.293,-0.2925,-0.292,-0.2903,-0.2901,-0.29,-0.2873,-0.2873,-0.2874,0,0,0,0,0,0,-0.3122,-0.3116,-0.3056,-0.3079,-0.3071,-0.3035,-0.3022,-0.3016,-0.3005,-0.2969,-0.2962,-0.2986,-0.2934,-0.2928,-0.2913,-0.2917,-0.29,-0.2898,-0.2872,-0.2873,-0.2873,-0.2909,0,0,0,0,0,0,-0.3124,-0.3117,-0.3115,-0.3079,-0.3069,-0.3045,-0.3022,-0.3015,-0.3002,-0.2999,-0.2964,-0.2957,-0.2933,-0.2916,-0.2911,-0.2914,-0.2896,-0.2871,-0.2872,-0.2873,-0.2907,-0.2911,-0.2914,0,0,0,0,0,-0.3127,-0.3127,-0.3115,-0.3109,-0.3067,-0.3045,-0.3039,-0.3012,-0.3003,-0.3001,-0.2978,-0.2958,-0.2918,-0.2915,-0.2909,-0.2911,-0.2871,-0.2872,-0.2873,-0.2906,-0.291,-0.2913,0,0,0,0,0,0,-0.3164,-0.3122,-0.3108,-0.3096,-0.3075,-0.3038,-0.3035,-0.3017,-0.2998,-0.2995,-0.2962,-0.2955,-0.2943,-0.2925,-0.2923,-0.2907,-0.2892,-0.2892,-0.2919,-0.2923,-0.2926,-0.293,-0.2895,0,0,0,0,0,-0.3171,-0.3156,-0.312,-0.3113,-0.3103,-0.3071,-0.306,-0.3042,-0.3017,-0.3008,-0.2983,-0.2961,-0.2943,-0.2932,-0.2913,-0.2904,-0.2896,-0.2903,-0.2907,-0.2909,-0.291,-0.2905,-0.2908,-0.2877,-0.2877,-0.2877,0,0,-0.3184,-0.316,-0.3153,-0.312,-0.3101,-0.3087,-0.3064,-0.3049,-0.3039,-0.3006,-0.299,-0.2971,-0.2944,-0.2932,-0.2926,-0.2917,-0.2917,-0.2911,-0.2913,-0.2912,-0.2906,-0.2909,-0.2912,-0.2877,-0.2877,-0.2877,0,0,-0.3202,-0.3182,-0.3174,-0.3156,-0.3127,-0.3106,-0.3105,-0.3071,-0.3057,-0.3041,-0.3016,-0.3003,-0.2973,-0.2954,-0.2941,-0.2953,-0.2935,-0.2948,-0.2965,-0.2961,-0.2963,-0.2965,-0.297,-0.2972,-0.2948,-0.2948,-0.2949,0,-0.3223,-0.3201,-0.3173,-0.316,-0.3147,-0.3117,-0.3109,-0.3092,-0.3059,-0.3051,-0.3042,-0.3004,-0.2983,-0.2967,-0.297,-0.296,-0.2957,-0.2952,-0.2965,-0.2967,-0.2968,-0.2973,-0.2975,-0.295,-0.295,-0.295,-0.295,0,-0.3228,-0.3213,-0.321,-0.318,-0.3166,-0.3156,-0.3126,-0.3116,-0.3099,-0.3079,-0.3063,-0.3037,-0.3013,-0.3008,-0.299,-0.299,-0.2986,-0.2971,-0.2956,-0.2973,-0.2977,-0.2979,-0.2953,-0.2952,-0.2952,-0.2951,0,0,-0.3267,-0.3222,-0.3221,-0.3207,-0.3174,-0.3162,-0.3151,-0.3128,-0.312,-0.3098,-0.3089,-0.3064,-0.3051,-0.3036,-0.3016,-0.3012,-0.3025,-0.2998,-0.2997,-0.3005,-0.3023,-0.3035,-0.3037,-0.3012,-0.3013,-0.3013,-0.3026,0,-0.328,-0.3259,-0.3233,-0.3221,-0.3207,-0.3179,-0.3169,-0.3148,-0.3129,-0.3115,-0.3094,-0.3077,-0.3061,-0.3052,-0.3047,-0.3024,-0.3028,-0.3023,-0.3003,-0.3003,-0.3012,-0.3039,-0.305,-0.3064,-0.3027,-0.3027,-0.3027,0,-0.3293,-0.3273,-0.326,-0.3229,-0.3222,-0.3214,-0.3191,-0.3178,-0.3153,-0.314,-0.3124,-0.3103,-0.309,-0.3076,-0.3058,-0.3056,-0.3046,-0.3034,-0.3034,-0.3031,-0.3017,-0.3038,-0.3068,-0.307,-0.3029,-0.3029,-0.3029,0,-0.3323,-0.3294,-0.3282,-0.3271,-0.3234,-0.3229,-0.3214,-0.3189,-0.3177,-0.3157,-0.3149,-0.3128,-0.3117,-0.3101,-0.3075,-0.3067,-0.3061,-0.3044,-0.305,-0.305,-0.305,-0.305,-0.3079,-0.3043,-0.3043,-0.3043,-0.3043,0,-0.3341,-0.3334,-0.3295,-0.3288,-0.328,-0.3251,-0.3243,-0.3225,-0.3203,-0.3192,-0.3166,-0.3156,-0.3122,-0.3109,-0.3088,-0.3077,-0.3072,-0.3061,-0.3056,-0.3064,-0.3065,-0.3058,-0.3056,-0.3043,-0.3043,-0.3043,-0.3043,0,-0.3374,-0.3348,-0.3333,-0.33,-0.3291,-0.3287,-0.3258,-0.325,-0.323,-0.3217,-0.3212,-0.318,-0.3163,-0.3136,-0.311,-0.3096,-0.3089,-0.308,-0.3098,-0.3095,-0.3102,-0.3102,-0.3127,-0.313,-0.3091,-0.3092,-0.3092,0,-0.3387,-0.3381,-0.3348,-0.3339,-0.3324,-0.331,-0.3298,-0.3269,-0.3258,-0.323,-0.3226,-0.3207,-0.319,-0.3164,-0.3138,-0.3119,-0.311,-0.312,-0.3106,-0.3115,-0.3111,-0.3112,-0.3111,-0.3123,-0.3124,-0.3124,-0.3125,0,-0.3414,-0.3402,-0.3385,-0.3365,-0.3352,-0.3334,-0.3316,-0.331,-0.3277,-0.3266,-0.3248,-0.3235,-0.3209,-0.3191,-0.3168,-0.3152,-0.3133,-0.3129,-0.3129,-0.3138,-0.3149,-0.3144,-0.3107,-0.3129,-0.3128,-0.3128,-0.3128,-0.3128,-0.3438,-0.3432,-0.3407,-0.3391,-0.3374,-0.3357,-0.3348,-0.3327,-0.3312,-0.329,-0.3273,-0.3257,-0.3233,-0.3201,-0.3186,-0.3173,-0.3165,-0.3165,-0.3165,-0.3166,-0.3169,-0.315,-0.3169,-0.3169,-0.3168,-0.3168,-0.3168,0,-0.3464,-0.3447,-0.3432,-0.3407,-0.3394,-0.3377,-0.3356,-0.3346,-0.3332,-0.3312,-0.3296,-0.3277,-0.3259,-0.3233,-0.3213,-0.3208,-0.3199,-0.3204,-0.3204,-0.3201,-0.3177,-0.318,-0.3211,-0.3211,-0.3211,-0.3211,-0.3211,-0.3211,-0.3476,-0.3465,-0.345,-0.343,-0.3413,-0.3397,-0.3387,-0.3371,-0.3355,-0.3334,-0.332,-0.3303,-0.328,-0.3259,-0.3242,-0.3235,-0.323,-0.3237,-0.3228,-0.3206,-0.3202,-0.3199,-0.32,-0.3236,-0.3236,-0.3252,-0.3252,-0.3253]},{"header":{"parameterUnit":"m.s-1","parameterCategory":1,"la1":30.2991,"la2":30.254,"lo1":-89.0895,"lo2":-89.0444,"dy":0.0017,"dx":0.0017,"nx":28,"ny":28,"refTime":"2025-09-17T03:00:00:Z","depth":0,"parameterNumber":3,"parameterNumberName":"V-component_of_WINDS"},"data":[0,0,0,0,0,0,0,0,0,0,0,0,0,0,0,0,0,0,0,0,0,0,0,0,0,0,0,0,0,0,0,0,0,0,0,0,0,0,0,0,0,0,0,0,0,0,0,0,0,0,0,0,0,0,0,0,0,0,1.5485,1.5484,0,1.5441,1.544,1.544,1.5449,1.545,1.5451,1.5452,1.5403,1.5401,1.5399,0,0,0,0,0,0,0,0,0,0,0,0,0,1.5572,1.5571,1.5485,1.5484,1.5484,1.5441,1.544,1.544,1.5449,1.545,1.5451,1.5452,1.5404,1.5401,1.5399,0,0,0,0,0,0,0,0,0,0,0,0,0,1.5532,1.557,1.5485,1.5483,1.5483,1.5441,1.544,1.544,1.5449,1.545,1.5451,1.5453,1.5404,1.5401,1.5398,1.5354,0,0,1.5389,1.5388,0,0,0,0,0,0,0,0,1.5534,1.5529,1.5484,1.5484,1.5483,1.5452,1.5453,1.5411,1.5449,1.5462,1.5452,1.5453,1.5418,1.5414,1.5403,1.5352,1.535,1.5389,1.5387,1.5385,1.5385,0,0,0,0,0,0,0,1.5537,1.553,1.5467,1.5484,1.5483,1.5483,1.5479,1.5445,1.5433,1.5461,1.5461,1.5456,1.5418,1.5406,1.5402,1.5349,1.5389,1.5386,1.5384,1.5383,1.5257,1.5255,0,0,0,0,0,0,1.5541,1.5533,1.5469,1.5466,1.5512,1.5481,1.5476,1.5461,1.5434,1.5431,1.5455,1.5457,1.541,1.5405,1.54,1.5344,1.5385,1.5383,1.5381,1.5258,1.5256,1.5255,0,0,0,0,0,0,1.5543,1.5535,1.5471,1.55,1.5491,1.5478,1.5461,1.5459,1.5447,1.543,1.5427,1.5445,1.5411,1.5404,1.5365,1.5343,1.5381,1.5378,1.526,1.5258,1.5255,1.5233,0,0,0,0,0,0,1.5545,1.5536,1.552,1.5499,1.549,1.5438,1.5459,1.5457,1.5442,1.5444,1.542,1.5417,1.5412,1.537,1.5362,1.5339,1.5376,1.5262,1.5259,1.5256,1.5236,1.5231,1.5226,0,0,0,0,0,1.5548,1.5516,1.5519,1.5512,1.547,1.5437,1.5431,1.5427,1.544,1.5423,1.5412,1.5418,1.5347,1.5366,1.5357,1.5333,1.5263,1.526,1.5256,1.5238,1.5232,1.5226,0,0,0,0,0,0,1.5533,1.5513,1.5517,1.5477,1.5458,1.5438,1.5417,1.5421,1.5397,1.54,1.5394,1.5389,1.5348,1.5337,1.5358,1.5287,1.5307,1.5301,1.5296,1.5289,1.5285,1.5287,1.5373,0,0,0,0,0,1.5526,1.5501,1.5484,1.545,1.5441,1.5431,1.5416,1.5414,1.5395,1.5387,1.5372,1.5352,1.5324,1.5307,1.5281,1.5235,1.5228,1.5214,1.5209,1.5205,1.52,1.5171,1.5164,1.5244,1.5244,1.5244,0,0,1.5509,1.5495,1.548,1.5447,1.5433,1.5405,1.5424,1.5395,1.5374,1.5382,1.5343,1.5332,1.5309,1.5265,1.5245,1.5254,1.5176,1.5201,1.5198,1.5194,1.5167,1.5159,1.5153,1.5241,1.5242,1.5242,0,0,1.5464,1.5452,1.5421,1.5406,1.5385,1.5378,1.537,1.5349,1.5342,1.5304,1.5308,1.5282,1.5237,1.5219,1.5204,1.515,1.5153,1.5142,1.5115,1.5088,1.5081,1.5076,1.5053,1.5046,1.5138,1.5138,1.5138,0,1.5445,1.5406,1.5405,1.5375,1.5359,1.5365,1.5332,1.5318,1.5288,1.5276,1.5288,1.5228,1.5213,1.5164,1.5151,1.514,1.5129,1.5144,1.5083,1.5077,1.5072,1.505,1.5042,1.5136,1.5136,1.5136,1.5137,0,1.5383,1.5356,1.5333,1.5304,1.5287,1.5255,1.5247,1.5229,1.5228,1.5219,1.5178,1.5161,1.513,1.5119,1.5118,1.5068,1.5074,1.5084,1.5103,1.5062,1.5042,1.5034,1.5134,1.5135,1.5135,1.5135,0,0,1.5327,1.5297,1.5289,1.5274,1.525,1.5228,1.5196,1.5167,1.515,1.513,1.5101,1.5061,1.5069,1.5052,1.505,1.5026,1.4981,1.5038,1.5037,1.5025,1.4921,1.4911,1.4902,1.4984,1.4982,1.4981,1.4922,0,1.5277,1.5222,1.5219,1.5168,1.5141,1.5146,1.5118,1.5098,1.5089,1.5063,1.5053,1.5023,1.5038,1.5028,1.5004,1.4991,1.4959,1.4996,1.4954,1.4952,1.4957,1.4892,1.4883,1.4827,1.4914,1.4913,1.4912,0,1.5212,1.5189,1.5136,1.5113,1.5102,1.5077,1.5048,1.5025,1.5002,1.4997,1.4977,1.4977,1.4942,1.4964,1.4913,1.4938,1.4921,1.4912,1.4909,1.4903,1.4928,1.4881,1.481,1.48,1.49,1.4901,1.4902,0,1.5173,1.5129,1.509,1.5079,1.5052,1.5034,1.5022,1.5001,1.4983,1.4958,1.4945,1.4916,1.4899,1.4876,1.4867,1.4885,1.4816,1.4838,1.4808,1.4808,1.4791,1.4792,1.4713,1.4785,1.4785,1.4785,1.4785,0,1.5116,1.5082,1.5072,1.5048,1.5009,1.5005,1.4966,1.4955,1.4936,1.4908,1.4911,1.4885,1.4877,1.4848,1.4841,1.4798,1.4792,1.4784,1.4782,1.4782,1.4782,1.4768,1.4771,1.4783,1.4783,1.4784,1.4784,0,1.5064,1.5057,1.5014,1.4993,1.4986,1.4958,1.4939,1.4914,1.4906,1.487,1.4862,1.4847,1.4813,1.4803,1.4762,1.4757,1.4706,1.4709,1.4714,1.4713,1.4682,1.4683,1.4589,1.4575,1.4659,1.4658,1.4658,0,1.5028,1.5002,1.4977,1.4959,1.4946,1.4917,1.4899,1.4893,1.4873,1.4845,1.4823,1.479,1.4763,1.4708,1.4693,1.4661,1.4661,1.463,1.4656,1.4656,1.4656,1.4657,1.4652,1.4624,1.4623,1.4623,1.4622,0,1.4962,1.4959,1.4933,1.4904,1.4882,1.4859,1.4837,1.4822,1.4813,1.479,1.4756,1.4735,1.4693,1.4659,1.4626,1.4611,1.4614,1.4615,1.4605,1.4603,1.4606,1.46,1.4697,1.4616,1.4617,1.4617,1.4617,1.4618,1.4914,1.489,1.4868,1.4838,1.4821,1.48,1.4775,1.4763,1.4735,1.4701,1.47,1.4661,1.4637,1.4594,1.4577,1.4546,1.4554,1.4542,1.4538,1.4534,1.453,1.4613,1.454,1.4541,1.4541,1.4541,1.4541,0,1.4846,1.4832,1.4804,1.4773,1.4749,1.4756,1.4731,1.4709,1.4676,1.4654,1.4627,1.4586,1.4553,1.4534,1.45,1.4478,1.4478,1.4469,1.4469,1.4465,1.4526,1.4536,1.447,1.447,1.447,1.447,1.447,1.447,1.4807,1.4766,1.476,1.4709,1.4695,1.4659,1.4643,1.4623,1.4605,1.4559,1.4532,1.4521,1.4499,1.4463,1.4431,1.4427,1.4412,1.4402,1.4397,1.4454,1.4461,1.4468,1.4477,1.44,1.4399,1.4339,1.4338,1.4338]}]]